KUIPER-00088 (65133 NORAD) Tracking and Keplerian Element Data

This shows tracking and keplerian element data for the satellite.

Feedback or suggestion? Click here.




ElementValue
Catalog65133
NameKUIPER-00088
Epoch Orbit2101
Epoch Day354.18242793
Epoch Year2025
RAAN157.4653
Inclination51.8974
Eccentricity0.0007947
Argument of Perigee212.9471
Mean Anonmoly147.0995
Mean Motion14.76735891
Decay Rate1.943E-05
L11 65133U 25171B 25354.18242793 .00001943 00000+0 30531-3 0 9990
L22 65133 51.8974 157.4653 0007947 212.9471 147.0995 14.76735891 21018



Live tracking and technical data element details for KUIPER-00088 (NORAD 65133). KUIPER-00088 can be tracked NOW for your location showing map with azimuth and elevation plus other details from your city location.







IsCatalogInMostPopularTable: catalog: 65133, numindb: 3
Update: records affected: 1



GetName: 65133 KUIPER-00088

Hit Count: updated at: Tue, 21 Apr 2026 20:33:04 GMT